Location: Bannatyne
(13.0833°N, 59.5333°W)
Time: 17:29:13
(UTC+00:00)

Vanguard 3 - Pass Details

Date: 25 January 2020
Orbit: 508 x 3263 km, 33.3° (Epoch: 22 February)

Event Time Altitude Azimuth Distance (km) Brightness Sun altitude
Rises 19:49:30 0° 245° (WSW) 6,105 12.9 27.3°
Reaches altitude 10° 19:53:05 10° 248° (WSW) 5,375 13.1 26.5°
Maximum altitude 20:10:46 71° 330° (NNW) 3,353 10.6 22.7°
Drops below altitude 10° 20:30:18 10° 53° (NE) 5,818 11.0 18.4°
Sets 20:34:24 0° 56° (NE) 6,604 11.2 17.5°
